ONEWEB-0056 (45159 NORAD) Tracking and Keplerian Element Data

This shows tracking and keplerian element data for the satellite.

Feedback or suggestion? Click here.




ElementValue
Catalog45159
NameONEWEB-0056
Epoch Orbit3874
Epoch Day297.91667824
Epoch Year2020
RAAN86.5266
Inclination87.9153
Eccentricity0.0019064
Argument of Perigee122.6787
Mean Anonmoly110.7071
Mean Motion13.40427671
Decay Rate7.816E-05
L11 45159U 20008AE 20297.91667824 .00007816 00000-0 14228-1 0 9997
L22 45159 87.9153 86.5266 0019064 122.6787 110.7071 13.40427671 38749

Live tracking and technical data element details for ONEWEB-0056 (NORAD 45159). ONEWEB-0056 can be tracked NOW for your location showing map with azimuth and elevation plus other details from your city location.

Track the satellite on the map from your city or location and see movement details for azimuth, elevation, latitude, longitude, range, height, and movement on the map or in text.







IsCatalogInMostPopularTable: catalog: 45159, numindb: 52
Update: records affected: 1



GetName: 45159 ONEWEB-0056

Hit Count: updated at: Sun, 25 Oct 2020 00:12:45 GMT